Tracking 19792 objects as of 15-Jul-2019
HD Live streaming from Space Station
objects crossing your sky now

COSMOS 761

Track COSMOS 761 now!
10-day predictions
COSMOS 761 is classified as:


NORAD ID: 8285
Int'l Code: 1975-086A
Perigee: 1,406.1 km
Apogee: 1,489.1 km
Inclination: 74.0 °
Period: 114.7 minutes
Semi major axis: 7818 km
RCS: 0.7223 m2 (medium)
Launch date: September 17, 1975
Source: Commonwealth of Independent States (former USSR) (CIS)
Launch site: PLESETSK MISSILE AND SPACE COMPLEX (PKMTR)
aabbcc
Your satellite tracking list
Your tracking list is empty




NASA's NSSDC Master Catalog

Two Line Element Set (TLE):
1  8285U 75086A   19195.50573878 -.00000000 +00000-0 +99522-4 0  9999
2  8285 074.0070 188.7164 0053118 306.3118 186.9987 12.55771104008939
Source of the keplerian elements: AFSPC